SCP
0 0 0 0 0 0 0 0 -0 0 0 -0 0 -0 0 -0 -0 0 0 -0 0 -0 -0 0 -0 -0 -0 -0 -0 -0 -0 -0 -0 -0 -0 -0 -0 -0 -0 -0 -0 -0 -0 -0 -0 -0 -0 -0 0
0 0 0 0 0 -0 0 0 0 0 0 0 0 0 0 0 0 0 0 0 -0 -0 -0 -0 -0 -0 -0 -0 -0 -0 -0 -0 -0 -0 -0 -0 -0 -0 -0 -0 -0 0 0 0 0 0 0 0 0
0 0 0 -0 0 -0 0 0 0 0 0 0 0 0 0 0 0 0 0 0 0 -0 -0 -0 -0 -0 -0 -0 -0 -0 -0 0 0 0 0 0 0 0 0 0 0 0 0 0 0 0 0 0 0
0 0 0 0 0 0 0 0 0 0 0 0 0 0 0 0 0 0 0 0 0 0 -0 0 0 -0 -0 -0 -0 -0 -0 0 0 0 0 0 0 0 0 0 0 0 0 0 0 0 0 0 0
0 0 0 0 0 0 0 0 0 0 0 0 0 0 0 0 0 0 0 0 0 0 0 0 0 0 0 0 0 0 0 0 0 0 0 0 0 0 0 0 0 0 0 0 0 0 0 0 0
0 -0 0 0 0 0 0 0 0 0 0 0 0 0 0 0 0 0 0 0 0 0 0 0 0 0 0 0 0 0 0 0 0 0 0 0 0 0 0 0 0 0 0 0 0 0 1 1 1
0 0 0 0 0 0 0 0 0 0 0 0 0 0 0 0 0 0 0 0 0 0 1 0 0 0 -0 -0 -0 0 0 0 0 -0 -0 0 0 0 0 0 0 0 0 0 0 0 0 0 0
0 0 0 0 0 0 0 0 0 0 0 0 0 0 0 0 0 0 0 0 0 0 0 1 0 0 0 0 -0 -0 0 0 0 0 0 0 0 0 0 0 0 0 0 0 0 0 0 0 0
0 0 0 0 0 0 0 0 0 0 0 0 0 1 0 0 0 0 0 0 0 0 0 0 0 0 0 0 0 0 0 0 0 0 0 0 0 0 0 0 0 0 0 0 0 0 0 0 0
0 0 0 0 0 0 0 0 0 0 0 0 0 0 0 0 0 0 0 0 0 0 0 0 -0 0 0 0 0 0 0 0 0 0 0 0 0 0 0 0 0 0 0 0 0 0 0 0 0
0 0 0 0 0 0 0 0 0 0 0 0 0 0 0 0 0 0 0 0 0 0 0 -0 0 0 0 0 0 0 0 0 0 0 0 0 0 0 0 0 0 0 0 0 0 0 0 0 0
0 0 0 0 0 0 0 0 0 0 0 0 0 0 0 0 0 0 0 0 0 -0 0 0 0 0 0 0 0 0 0 0 0 0 0 0 0 0 0 0 0 0 0 0 0 0 0 0 0
0 0 0 0 0 0 0 0 0 0 0 0 0 0 0 0 0 0 0 0 0 0 0 -0 0 0 0 0 0 0 0 0 0 0 0 0 0 0 0 0 0 0 0 0 0 0 0 0 0
0 0 0 0 0 0 0 0 0 0 0 0 0 0 0 0 0 0 0 0 0 0 0 0 0 0 0 0 0 0 0 0 0 0 0 0 0 0 0 0 0 0 0 0 0 0 0 0 0
0 0 0 0 0 0 0 0 0 0 0 0 0 0 0 0 0 0 0 0 0 0 0 0 0 0 -0 0 0 0 0 0 0 0 0 0 0 0 0 0 0 0 0 0 0 0 0 0 0
0 0 0 0 0 0 0 0 0 0 0 0 0 0 0 0 0 0 0 0 0 0 0 0 0 0 0 0 0 0 0 0 0 0 0 0 0 0 0 0 0 0 0 0 0 0 0 0 0
0 0 0 0 0 0 0 0 0 0 0 0 0 0 0 0 0 0 0 0 0 0 0 0 0 0 0 0 0 0 0 0 0 0 0 0 0 0 0 0 0 0 0 0 0 0 0 0 0
0 0 0 0 0 0 0 0 0 0 0 0 0 0 0 0 0 0 0 0 0 0 0 0 0 0 0 0 0 0 0 0 0 0 0 0 0 0 0 0 0 0 0 0 0 0 0 0 0
0 0 0 0 0 0 0 0 0 0 0 0 0 0 0 0 0 0 0 0 0 0 0 0 -0 0 0 0 0 0 0 0 0 0 0 0 0 0 0 0 0 0 0 0 0 -0 -0 0 0
0 0 0 0 0 0 0 0 0 0 0 0 0 0 0 0 0 0 0 0 0 0 0 0 0 0 0 0 0 0 0 0 0 0 0 0 0 0 0 0 0 0 0 0 0 0 0 0 0
0 0 0 0 0 0 0 0 0 0 0 0 0 0 0 -0 -0 -0 0 0 0 0 0 -0 0 0 0 0 0 0 0 0 0 0 0 0 0 0 0 0 0 0 0 0 0 0 0 0 0
0 0 0 0 0 0 0 0 0 0 0 -0 0 0 -0 -0 0 0 0 0 0 0 0 0 0 0 0 0 0 0 0 0 0 0 0 0 0 0 0 0 0 0 0 0 0 0 0 0 0
0 0 0 0 0 0 0 0 0 0 0 -0 -0 -0 -0 0 0 0 0 0 0 0 0 0 0 0 0 0 0 0 0 0 0 0 0 0 0 0 0 0 0 0 0 0 0 0 0 0 0
0 0 0 0 0 0 0 0 0 0 0 -0 -0 -0 -0 0 0 0 0 0 0 0 0 0 0 0 0 0 0 0 0 0 0 0 0 0 0 0 0 0 0 0 0 0 0 0 0 0 0
0 0 0 0 0 0 0 0 0 0 0 0 -0 -0 0 0 0 0 0 0 0 0 0 0 0 0 0 0 0 0 0 0 0 0 0 0 0 0 0 0 0 0 0 0 0 0 0 0 0
0 0 0 0 0 0 0 0 0 0 0 0 0 0 0 0 0 0 0 0 0 0 0 0 0 0 0 0 0 0 0 0 0 0 0 0 0 0 0 0 0 0 0 0 0 0 0 0 0
0 0 0 0 0 0 0 0 0 0 0 0 0 0 0 0 0 0 0 0 0 0 0 0 0 0 0 0 0 0 0 0 0 0 0 0 0 0 0 0 0 0 0 0 0 0 0 0 0
0 0 0 0 0 0 0 0 0 0 0 0 0 0 0 0 0 0 0 0 0 0 0 0 0 0 0 0 0 0 0 0 0 0 0 0 0 0 0 0 0 0 0 0 0 0 0 0 0
0 0 0 0 0 0 0 0 0 0 0 0 0 0 0 0 0 0 0 0 0 0 0 0 0 0 0 0 0 0 0 0 0 0 0 0 0 0 0 0 0 0 0 0 0 0 0 0 0
0 0 0 0 0 0 0 0 0 0 0 0 0 0 0 0 0 0 0 0 0 0 0 0 0 0 0 0 0 0 0 0 0 0 0 0 0 0 0 0 0 0 0 0 0 0 0 0 0
Wind_Speed_500mb
7 9 9 4 11 10 12 14 3 13 11 8 15 8 22 24 21 10 19 15 32 33 30 27 25 25 25 25 25 27 25 23 21 21 20 19 16 15 15 15 14 15 14 14 14 13 13 13 11
6 6 4 7 9 11 14 10 10 16 15 20 18 15 16 27 28 23 13 25 32 32 32 30 29 26 26 27 26 25 24 23 22 20 20 18 16 15 14 13 15 15 16 16 16 15 14 13 11
4 1 11 6 4 10 14 7 12 17 22 14 13 15 11 11 18 12 21 35 32 32 30 30 26 22 21 21 22 23 22 21 19 18 17 18 16 14 15 15 13 13 13 13 14 14 13 11 9
3 5 8 7 11 14 7 5 5 18 15 10 13 20 19 14 5 14 30 36 35 31 28 24 21 17 13 13 14 15 16 18 20 19 16 15 13 12 11 10 11 12 14 17 18 18 16 14 10
2 8 6 6 11 6 3 4 10 12 11 14 4 17 16 15 20 30 33 32 34 31 29 26 22 18 13 11 9 12 15 18 19 18 17 14 11 9 8 9 9 9 9 9 10 12 14 16 17
10 7 8 7 12 9 7 5 7 7 9 12 11 18 14 11 23 26 32 34 29 31 30 30 24 19 17 14 14 14 15 15 15 15 14 12 8 7 5 3 4 6 7 7 6 7 9 13 16
6 2 9 8 11 16 11 6 4 9 11 13 10 10 15 19 28 32 36 34 31 28 27 27 24 20 19 18 19 18 17 14 10 8 8 6 4 3 3 6 7 10 13 15 16 18 17 15 15
2 5 11 2 7 18 13 7 9 2 14 12 5 9 20 36 37 33 34 32 29 24 21 21 23 21 22 23 22 16 9 9 8 8 6 1 4 8 11 13 13 14 17 18 15 15 17 18 19
7 9 7 7 6 12 11 1 9 6 19 16 11 11 44 49 41 41 36 33 29 25 21 20 20 23 19 19 19 19 8 13 7 4 6 3 1 3 7 10 12 17 19 20 19 20 22 21 22
9 8 6 9 9 6 5 5 5 6 22 23 33 42 52 49 43 39 35 34 30 21 22 24 22 21 20 18 18 10 16 14 13 13 10 1 5 7 8 7 9 17 18 18 18 19 20 21 20
3 6 5 8 6 8 1 3 2 6 7 13 36 51 52 46 36 38 35 30 12 7 12 15 16 21 22 21 20 17 15 7 3 1 4 6 4 7 9 5 9 13 13 17 19 22 24 26 25
9 4 3 6 5 11 8 1 31 27 19 9 43 51 53 41 38 43 33 27 8 2 7 7 12 20 25 24 23 18 16 9 5 3 7 5 10 11 13 15 18 21 24 26 28 30 32 32 32
6 3 4 7 11 10 7 11 22 34 26 35 45 47 45 38 38 41 27 31 13 6 6 10 17 14 15 14 14 17 9 3 7 11 15 20 24 25 25 26 27 28 31 34 35 35 34 34 33
4 8 5 6 6 2 15 13 5 19 23 36 42 42 39 37 31 31 28 35 29 17 10 10 15 10 7 9 15 21 26 27 26 28 29 27 25 25 25 27 30 32 35 36 36 36 34 33 32
4 9 18 14 8 11 32 20 18 16 20 30 35 40 41 36 31 26 25 24 23 16 14 10 15 24 29 35 36 35 31 30 30 29 25 24 24 25 27 30 33 35 37 37 36 33 29 27 27
7 11 20 16 7 5 18 16 15 15 24 29 35 39 41 35 32 29 25 23 26 27 28 30 33 33 33 35 34 32 30 28 25 23 22 22 24 28 31 32 34 35 33 32 31 33 31 30 30
11 9 6 13 20 5 11 20 10 7 24 31 34 36 43 42 34 28 31 31 28 32 33 32 33 32 32 31 28 24 22 21 21 20 21 25 29 32 32 33 35 34 32 33 32 30 31 31 32
9 14 11 4 12 13 25 21 12 5 21 27 31 35 38 40 37 36 38 33 33 34 34 32 32 29 24 23 23 22 20 20 20 21 25 28 31 33 34 36 41 33 30 29 31 29 30 29 35
6 8 6 13 7 5 15 18 16 14 20 27 30 33 36 39 36 36 36 37 40 36 33 31 30 26 21 20 19 19 19 19 19 22 24 26 30 35 37 34 33 29 27 31 33 30 28 30 36
10 12 11 11 7 7 12 15 18 15 9 17 29 38 42 39 37 36 35 37 36 36 33 30 24 21 17 15 16 15 15 15 15 16 19 24 29 32 37 38 35 39 28 31 35 37 35 29 36
13 15 10 3 9 3 15 17 20 18 16 20 34 36 35 41 41 38 35 32 33 33 30 25 18 14 11 11 13 12 13 13 13 13 18 21 26 33 39 43 42 37 34 35 38 42 39 35 31
16 12 8 14 14 6 16 3 22 24 23 32 34 36 40 43 38 37 35 31 28 27 25 21 14 10 8 9 7 10 9 9 7 12 19 22 28 36 40 43 37 35 35 39 41 43 40 37 29
1 7 12 10 14 11 21 14 19 23 27 32 39 40 44 42 40 36 31 29 27 27 24 19 16 10 9 6 6 8 8 6 2 9 12 20 28 36 40 34 31 31 34 37 40 43 42 32 26
14 15 11 9 10 18 7 14 16 16 27 33 43 45 49 46 38 33 28 31 29 26 24 20 15 13 10 8 7 8 5 5 7 11 12 19 28 35 30 27 29 32 34 38 40 40 37 33 27
20 18 11 13 11 4 8 10 11 6 10 37 50 55 55 47 39 32 31 31 31 31 28 25 19 17 14 13 13 13 14 12 10 12 17 19 25 25 22 23 26 31 35 38 39 36 30 28 26
31 24 10 10 7 7 9 9 9 5 14 25 40 51 51 45 40 35 34 33 32 33 30 27 22 20 19 20 19 18 17 15 15 18 20 23 22 21 23 26 30 33 36 39 39 29 26 27 25
18 22 1 5 1 7 3 4 12 7 14 23 40 48 50 46 42 36 34 36 35 35 36 33 28 26 24 23 21 20 20 18 20 21 24 23 19 21 24 27 30 33 35 37 34 28 26 28 28
20 23 12 9 7 9 7 9 3 16 23 26 41 52 53 49 42 37 33 35 34 35 36 33 30 27 24 23 22 22 22 22 22 24 22 19 21 22 25 29 32 34 35 35 32 26 24 29 27
13 14 1 3 2 5 5 2 5 3 20 31 45 52 53 50 44 37 31 33 36 39 35 34 34 30 24 25 24 23 23 24 23 22 19 19 21 23 26 29 31 32 34 34 31 29 27 31 30
4 6 13 7 9 3 5 11 5 3 8 26 34 43 48 49 45 40 38 41 42 40 39 39 36 30 25 26 24 24 24 23 21 19 18 20 22 25 26 28 29 32 33 33 31 31 32 33 34
Wind_Direction_500mb
338 333 327 280 235 242 119 108 55 133 136 77 99 33 50 36 12 38 133 132 140 150 146 129 120 120 126 129 133 138 142 141 135 131 125 121 111 103 96 88 72 69 71 71 69 68 66 68 69
331 324 278 261 255 189 109 112 146 78 103 122 111 110 59 72 47 92 100 129 140 150 144 139 133 130 126 126 128 131 133 132 130 126 123 115 107 93 84 70 64 53 51 55 53 49 46 45 49
320 337 259 269 238 73 106 135 109 108 139 152 141 68 52 33 59 112 129 139 141 143 151 147 140 135 130 130 131 134 136 133 122 102 87 84 82 81 70 63 57 55 51 46 48 46 44 40 34
11 235 226 268 104 90 42 72 131 135 142 151 131 86 84 39 113 126 134 142 147 154 157 153 145 140 136 129 129 127 123 117 109 110 112 109 101 90 82 68 53 43 31 21 12 6 3 2 359
249 232 193 154 113 96 82 21 198 172 131 142 188 111 89 51 95 121 133 143 149 149 153 154 153 151 137 121 110 107 108 115 122 126 125 114 106 91 68 50 36 23 17 18 7 354 346 338 330
202 261 208 129 108 106 70 46 164 208 133 147 117 114 85 101 116 124 130 139 148 152 156 161 162 151 136 122 126 132 134 135 139 138 126 114 111 97 71 33 348 331 325 316 310 305 306 309 310
347 259 86 122 115 101 59 57 202 162 125 78 114 104 115 120 130 129 137 150 155 160 162 159 159 151 149 149 154 158 158 159 149 127 112 135 140 139 227 242 239 259 282 296 310 316 306 293 284
338 270 167 161 127 76 61 92 83 345 82 112 77 131 145 142 131 129 132 138 142 148 155 165 170 162 169 163 168 159 134 164 155 150 129 176 331 321 313 307 302 306 321 318 312 311 316 308 292
316 238 165 129 208 89 69 74 72 94 122 74 43 80 133 137 133 127 117 119 129 141 151 163 179 174 179 171 159 145 225 192 163 99 91 104 124 322 309 306 317 325 322 322 319 312 312 314 312
305 289 67 40 47 53 39 27 29 219 137 93 86 111 127 132 132 129 127 137 136 143 153 158 175 174 172 164 164 141 248 209 171 161 148 67 343 333 341 335 327 307 321 323 324 327 327 325 329
19 2 129 111 32 348 279 169 61 297 172 64 144 135 136 136 133 122 124 101 76 183 134 166 176 170 170 183 169 187 203 207 193 72 351 15 3 344 341 23 346 26 17 19 8 359 354 347 339
247 158 201 32 345 308 288 43 67 48 20 106 139 141 143 141 137 137 119 121 196 98 108 197 205 203 201 208 193 206 204 198 212 310 14 35 90 90 87 73 60 47 38 27 22 13 6 359 353
248 160 267 333 307 294 260 61 89 60 78 115 133 139 141 142 137 137 138 166 197 300 360 290 237 162 159 185 183 199 196 126 81 93 87 82 74 67 58 48 39 30 21 12 7 2 357 352 350
3 282 278 342 352 133 184 115 177 72 111 119 130 136 137 133 140 143 143 161 191 217 207 205 154 136 57 111 122 110 105 98 93 87 78 70 63 53 43 32 25 17 14 8 6 2 0 357 356
276 228 151 48 103 112 140 79 71 118 123 122 129 125 126 129 145 151 162 178 192 162 149 157 123 111 116 113 110 106 103 97 88 81 73 63 53 41 31 23 15 10 6 3 360 1 1 4 4
220 230 190 58 17 100 209 103 59 149 132 127 125 124 128 129 147 155 147 152 148 149 135 127 117 117 114 110 106 102 97 91 86 77 66 52 40 30 22 15 12 11 9 7 6 3 6 4 3
195 161 194 133 30 172 264 115 87 171 141 135 134 130 136 135 122 121 120 125 123 123 123 114 113 111 110 103 101 103 102 97 86 71 52 39 30 24 20 17 12 12 14 12 12 9 6 359 358
161 160 164 117 47 84 92 109 87 132 148 146 138 136 131 124 127 132 127 129 127 126 123 118 116 111 113 109 101 96 92 84 75 59 42 30 24 22 20 16 15 21 19 16 14 10 3 358 354
146 179 156 113 72 56 93 119 110 106 137 141 138 131 129 132 136 137 136 137 133 133 124 123 120 120 113 103 100 93 88 80 67 46 30 24 24 19 19 17 14 19 13 14 11 10 6 1 356
197 195 174 110 97 263 159 129 129 149 108 141 143 146 145 143 143 144 143 139 138 132 133 128 121 114 114 103 100 98 84 71 53 39 31 25 14 12 8 7 7 6 12 7 7 9 6 3 359
206 226 166 279 148 154 191 168 162 154 154 156 170 156 156 152 151 149 148 149 144 144 144 137 126 123 128 114 93 81 71 67 64 39 18 13 9 3 359 355 353 358 4 3 2 1 1 359 357
207 202 204 183 220 247 208 281 169 166 168 171 168 169 161 155 156 152 152 153 152 154 153 143 155 172 144 127 130 124 122 112 78 35 8 356 354 350 347 346 351 359 1 359 358 353 355 353 353
71 166 205 206 237 251 198 253 111 168 178 179 179 176 168 166 163 161 159 162 159 166 161 168 186 177 186 185 178 155 149 147 69 353 340 339 338 340 340 346 353 354 354 353 350 348 347 352 350
144 160 167 212 250 246 262 242 156 179 208 184 185 180 176 173 170 166 167 167 169 167 172 197 195 198 209 212 206 196 204 254 287 322 337 330 330 333 340 345 345 347 349 348 346 343 341 341 345
198 194 215 214 206 273 132 224 35 162 214 194 187 183 182 182 178 176 175 176 179 181 193 210 197 213 226 232 229 228 231 244 260 285 302 312 322 328 335 340 343 345 345 344 343 341 343 341 342
206 207 232 254 217 126 160 228 116 314 196 191 189 186 184 186 190 193 192 192 191 191 198 206 193 207 232 235 232 232 238 255 270 288 304 318 325 330 337 340 342 343 342 342 341 340 340 338 336
172 212 342 186 87 273 215 172 168 146 163 184 184 188 192 196 197 196 197 198 197 197 207 208 207 213 231 237 236 243 251 264 283 305 314 318 321 328 333 336 340 341 340 340 339 334 333 333 329
240 150 181 218 218 232 156 258 298 187 191 189 194 198 200 200 201 202 205 206 200 198 206 207 208 217 231 239 241 247 259 275 291 302 303 306 314 320 330 337 337 338 339 338 338 331 327 327 327
158 177 123 98 310 259 271 263 66 198 198 204 208 206 205 203 205 203 198 194 191 198 199 205 212 218 228 239 241 252 265 279 289 292 294 303 309 321 328 329 331 333 334 334 333 328 326 324 323
321 176 205 206 173 215 291 273 118 230 246 212 218 213 211 209 205 201 197 199 197 195 197 207 212 212 228 237 242 255 269 279 282 286 292 299 307 318 320 323 328 331 331 330 328 326 323 323 320
Wind_Speed_850mb
7 9 9 4 11 10 12 14 3 13 11 8 15 8 22 24 21 10 19 15 32 33 30 27 25 25 25 25 25 27 25 23 21 21 20 19 16 15 15 15 14 15 14 14 14 13 13 13 11
6 6 4 7 9 11 14 10 10 16 15 20 18 15 16 27 28 23 13 25 32 32 32 30 29 26 26 27 26 25 24 23 22 20 20 18 16 15 14 13 15 15 16 16 16 15 14 13 11
4 1 11 6 4 10 14 7 12 17 22 14 13 15 11 11 18 12 21 35 32 32 30 30 26 22 21 21 22 23 22 21 19 18 17 18 16 14 15 15 13 13 13 13 14 14 13 11 9
3 5 8 7 11 14 7 5 5 18 15 10 13 20 19 14 5 14 30 36 35 31 28 24 21 17 13 13 14 15 16 18 20 19 16 15 13 12 11 10 11 12 14 17 18 18 16 14 10
2 8 6 6 11 6 3 4 10 12 11 14 4 17 16 15 20 30 33 32 34 31 29 26 22 18 13 11 9 12 15 18 19 18 17 14 11 9 8 9 9 9 9 9 10 12 14 16 17
10 7 8 7 12 9 7 5 7 7 9 12 11 18 14 11 23 26 32 34 29 31 30 30 24 19 17 14 14 14 15 15 15 15 14 12 8 7 5 3 4 6 7 7 6 7 9 13 16
6 2 9 8 11 16 11 6 4 9 11 13 10 10 15 19 28 32 36 34 31 28 27 27 24 20 19 18 19 18 17 14 10 8 8 6 4 3 3 6 7 10 13 15 16 18 17 15 15
2 5 11 2 7 18 13 7 9 2 14 12 5 9 20 36 37 33 34 32 29 24 21 21 23 21 22 23 22 16 9 9 8 8 6 1 4 8 11 13 13 14 17 18 15 15 17 18 19
7 9 7 7 6 12 11 1 9 6 19 16 11 11 44 49 41 41 36 33 29 25 21 20 20 23 19 19 19 19 8 13 7 4 6 3 1 3 7 10 12 17 19 20 19 20 22 21 22
9 8 6 9 9 6 5 5 5 6 22 23 33 42 52 49 43 39 35 34 30 21 22 24 22 21 20 18 18 10 16 14 13 13 10 1 5 7 8 7 9 17 18 18 18 19 20 21 20
3 6 5 8 6 8 1 3 2 6 7 13 36 51 52 46 36 38 35 30 12 7 12 15 16 21 22 21 20 17 15 7 3 1 4 6 4 7 9 5 9 13 13 17 19 22 24 26 25
9 4 3 6 5 11 8 1 31 27 19 9 43 51 53 41 38 43 33 27 8 2 7 7 12 20 25 24 23 18 16 9 5 3 7 5 10 11 13 15 18 21 24 26 28 30 32 32 32
6 3 4 7 11 10 7 11 22 34 26 35 45 47 45 38 38 41 27 31 13 6 6 10 17 14 15 14 14 17 9 3 7 11 15 20 24 25 25 26 27 28 31 34 35 35 34 34 33
4 8 5 6 6 2 15 13 5 19 23 36 42 42 39 37 31 31 28 35 29 17 10 10 15 10 7 9 15 21 26 27 26 28 29 27 25 25 25 27 30 32 35 36 36 36 34 33 32
4 9 18 14 8 11 32 20 18 16 20 30 35 40 41 36 31 26 25 24 23 16 14 10 15 24 29 35 36 35 31 30 30 29 25 24 24 25 27 30 33 35 37 37 36 33 29 27 27
7 11 20 16 7 5 18 16 15 15 24 29 35 39 41 35 32 29 25 23 26 27 28 30 33 33 33 35 34 32 30 28 25 23 22 22 24 28 31 32 34 35 33 32 31 33 31 30 30
11 9 6 13 20 5 11 20 10 7 24 31 34 36 43 42 34 28 31 31 28 32 33 32 33 32 32 31 28 24 22 21 21 20 21 25 29 32 32 33 35 34 32 33 32 30 31 31 32
9 14 11 4 12 13 25 21 12 5 21 27 31 35 38 40 37 36 38 33 33 34 34 32 32 29 24 23 23 22 20 20 20 21 25 28 31 33 34 36 41 33 30 29 31 29 30 29 35
6 8 6 13 7 5 15 18 16 14 20 27 30 33 36 39 36 36 36 37 40 36 33 31 30 26 21 20 19 19 19 19 19 22 24 26 30 35 37 34 33 29 27 31 33 30 28 30 36
10 12 11 11 7 7 12 15 18 15 9 17 29 38 42 39 37 36 35 37 36 36 33 30 24 21 17 15 16 15 15 15 15 16 19 24 29 32 37 38 35 39 28 31 35 37 35 29 36
13 15 10 3 9 3 15 17 20 18 16 20 34 36 35 41 41 38 35 32 33 33 30 25 18 14 11 11 13 12 13 13 13 13 18 21 26 33 39 43 42 37 34 35 38 42 39 35 31
16 12 8 14 14 6 16 3 22 24 23 32 34 36 40 43 38 37 35 31 28 27 25 21 14 10 8 9 7 10 9 9 7 12 19 22 28 36 40 43 37 35 35 39 41 43 40 37 29
1 7 12 10 14 11 21 14 19 23 27 32 39 40 44 42 40 36 31 29 27 27 24 19 16 10 9 6 6 8 8 6 2 9 12 20 28 36 40 34 31 31 34 37 40 43 42 32 26
14 15 11 9 10 18 7 14 16 16 27 33 43 45 49 46 38 33 28 31 29 26 24 20 15 13 10 8 7 8 5 5 7 11 12 19 28 35 30 27 29 32 34 38 40 40 37 33 27
20 18 11 13 11 4 8 10 11 6 10 37 50 55 55 47 39 32 31 31 31 31 28 25 19 17 14 13 13 13 14 12 10 12 17 19 25 25 22 23 26 31 35 38 39 36 30 28 26
31 24 10 10 7 7 9 9 9 5 14 25 40 51 51 45 40 35 34 33 32 33 30 27 22 20 19 20 19 18 17 15 15 18 20 23 22 21 23 26 30 33 36 39 39 29 26 27 25
18 22 1 5 1 7 3 4 12 7 14 23 40 48 50 46 42 36 34 36 35 35 36 33 28 26 24 23 21 20 20 18 20 21 24 23 19 21 24 27 30 33 35 37 34 28 26 28 28
20 23 12 9 7 9 7 9 3 16 23 26 41 52 53 49 42 37 33 35 34 35 36 33 30 27 24 23 22 22 22 22 22 24 22 19 21 22 25 29 32 34 35 35 32 26 24 29 27
13 14 1 3 2 5 5 2 5 3 20 31 45 52 53 50 44 37 31 33 36 39 35 34 34 30 24 25 24 23 23 24 23 22 19 19 21 23 26 29 31 32 34 34 31 29 27 31 30
4 6 13 7 9 3 5 11 5 3 8 26 34 43 48 49 45 40 38 41 42 40 39 39 36 30 25 26 24 24 24 23 21 19 18 20 22 25 26 28 29 32 33 33 31 31 32 33 34
Wind_Direction_850mb
338 333 327 280 235 242 119 108 55 133 136 77 99 33 50 36 12 38 133 132 140 150 146 129 120 120 126 129 133 138 142 141 135 131 125 121 111 103 96 88 72 69 71 71 69 68 66 68 69
331 324 278 261 255 189 109 112 146 78 103 122 111 110 59 72 47 92 100 129 140 150 144 139 133 130 126 126 128 131 133 132 130 126 123 115 107 93 84 70 64 53 51 55 53 49 46 45 49
320 337 259 269 238 73 106 135 109 108 139 152 141 68 52 33 59 112 129 139 141 143 151 147 140 135 130 130 131 134 136 133 122 102 87 84 82 81 70 63 57 55 51 46 48 46 44 40 34
11 235 226 268 104 90 42 72 131 135 142 151 131 86 84 39 113 126 134 142 147 154 157 153 145 140 136 129 129 127 123 117 109 110 112 109 101 90 82 68 53 43 31 21 12 6 3 2 359
249 232 193 154 113 96 82 21 198 172 131 142 188 111 89 51 95 121 133 143 149 149 153 154 153 151 137 121 110 107 108 115 122 126 125 114 106 91 68 50 36 23 17 18 7 354 346 338 330
202 261 208 129 108 106 70 46 164 208 133 147 117 114 85 101 116 124 130 139 148 152 156 161 162 151 136 122 126 132 134 135 139 138 126 114 111 97 71 33 348 331 325 316 310 305 306 309 310
347 259 86 122 115 101 59 57 202 162 125 78 114 104 115 120 130 129 137 150 155 160 162 159 159 151 149 149 154 158 158 159 149 127 112 135 140 139 227 242 239 259 282 296 310 316 306 293 284
338 270 167 161 127 76 61 92 83 345 82 112 77 131 145 142 131 129 132 138 142 148 155 165 170 162 169 163 168 159 134 164 155 150 129 176 331 321 313 307 302 306 321 318 312 311 316 308 292
316 238 165 129 208 89 69 74 72 94 122 74 43 80 133 137 133 127 117 119 129 141 151 163 179 174 179 171 159 145 225 192 163 99 91 104 124 322 309 306 317 325 322 322 319 312 312 314 312
305 289 67 40 47 53 39 27 29 219 137 93 86 111 127 132 132 129 127 137 136 143 153 158 175 174 172 164 164 141 248 209 171 161 148 67 343 333 341 335 327 307 321 323 324 327 327 325 329
19 2 129 111 32 348 279 169 61 297 172 64 144 135 136 136 133 122 124 101 76 183 134 166 176 170 170 183 169 187 203 207 193 72 351 15 3 344 341 23 346 26 17 19 8 359 354 347 339
247 158 201 32 345 308 288 43 67 48 20 106 139 141 143 141 137 137 119 121 196 98 108 197 205 203 201 208 193 206 204 198 212 310 14 35 90 90 87 73 60 47 38 27 22 13 6 359 353
248 160 267 333 307 294 260 61 89 60 78 115 133 139 141 142 137 137 138 166 197 300 360 290 237 162 159 185 183 199 196 126 81 93 87 82 74 67 58 48 39 30 21 12 7 2 357 352 350
3 282 278 342 352 133 184 115 177 72 111 119 130 136 137 133 140 143 143 161 191 217 207 205 154 136 57 111 122 110 105 98 93 87 78 70 63 53 43 32 25 17 14 8 6 2 0 357 356
276 228 151 48 103 112 140 79 71 118 123 122 129 125 126 129 145 151 162 178 192 162 149 157 123 111 116 113 110 106 103 97 88 81 73 63 53 41 31 23 15 10 6 3 360 1 1 4 4
220 230 190 58 17 100 209 103 59 149 132 127 125 124 128 129 147 155 147 152 148 149 135 127 117 117 114 110 106 102 97 91 86 77 66 52 40 30 22 15 12 11 9 7 6 3 6 4 3
195 161 194 133 30 172 264 115 87 171 141 135 134 130 136 135 122 121 120 125 123 123 123 114 113 111 110 103 101 103 102 97 86 71 52 39 30 24 20 17 12 12 14 12 12 9 6 359 358
161 160 164 117 47 84 92 109 87 132 148 146 138 136 131 124 127 132 127 129 127 126 123 118 116 111 113 109 101 96 92 84 75 59 42 30 24 22 20 16 15 21 19 16 14 10 3 358 354
146 179 156 113 72 56 93 119 110 106 137 141 138 131 129 132 136 137 136 137 133 133 124 123 120 120 113 103 100 93 88 80 67 46 30 24 24 19 19 17 14 19 13 14 11 10 6 1 356
197 195 174 110 97 263 159 129 129 149 108 141 143 146 145 143 143 144 143 139 138 132 133 128 121 114 114 103 100 98 84 71 53 39 31 25 14 12 8 7 7 6 12 7 7 9 6 3 359
206 226 166 279 148 154 191 168 162 154 154 156 170 156 156 152 151 149 148 149 144 144 144 137 126 123 128 114 93 81 71 67 64 39 18 13 9 3 359 355 353 358 4 3 2 1 1 359 357
207 202 204 183 220 247 208 281 169 166 168 171 168 169 161 155 156 152 152 153 152 154 153 143 155 172 144 127 130 124 122 112 78 35 8 356 354 350 347 346 351 359 1 359 358 353 355 353 353
71 166 205 206 237 251 198 253 111 168 178 179 179 176 168 166 163 161 159 162 159 166 161 168 186 177 186 185 178 155 149 147 69 353 340 339 338 340 340 346 353 354 354 353 350 348 347 352 350
144 160 167 212 250 246 262 242 156 179 208 184 185 180 176 173 170 166 167 167 169 167 172 197 195 198 209 212 206 196 204 254 287 322 337 330 330 333 340 345 345 347 349 348 346 343 341 341 345
198 194 215 214 206 273 132 224 35 162 214 194 187 183 182 182 178 176 175 176 179 181 193 210 197 213 226 232 229 228 231 244 260 285 302 312 322 328 335 340 343 345 345 344 343 341 343 341 342
206 207 232 254 217 126 160 228 116 314 196 191 189 186 184 186 190 193 192 192 191 191 198 206 193 207 232 235 232 232 238 255 270 288 304 318 325 330 337 340 342 343 342 342 341 340 340 338 336
172 212 342 186 87 273 215 172 168 146 163 184 184 188 192 196 197 196 197 198 197 197 207 208 207 213 231 237 236 243 251 264 283 305 314 318 321 328 333 336 340 341 340 340 339 334 333 333 329
240 150 181 218 218 232 156 258 298 187 191 189 194 198 200 200 201 202 205 206 200 198 206 207 208 217 231 239 241 247 259 275 291 302 303 306 314 320 330 337 337 338 339 338 338 331 327 327 327
158 177 123 98 310 259 271 263 66 198 198 204 208 206 205 203 205 203 198 194 191 198 199 205 212 218 228 239 241 252 265 279 289 292 294 303 309 321 328 329 331 333 334 334 333 328 326 324 323
321 176 205 206 173 215 291 273 118 230 246 212 218 213 211 209 205 201 197 199 197 195 197 207 212 212 228 237 242 255 269 279 282 286 292 299 307 318 320 323 328 331 331 330 328 326 323 323 320